Location: Boiro
(42.6475°N, 8.8834°W)
Time: 08:47:55
(UTC+01:00)

Transit 4A - Pass Details

Date: 26 September 2023
Orbit: 864 x 979 km, 66.8° (Epoch: 02 December)

Event Time Altitude Azimuth Distance (km) Brightness Sun altitude
Rises 22:32:27 0° 333° (NNW) 3,680 11.7 -23.6°
Reaches altitude 10° 22:35:12 10° 340° (NNW) 2,721 10.9 -24.0°
Maximum altitude 22:41:13 42° 50° (NE) 1,336 8.5 -25.0°
Enters shadow 22:41:32 42° 58° (ENE) 1,341 8.4 -25.1°
